カタログに戻る

CZ-4C DEB

運用中PO
NORAD 43410·DEBRIS·🇨🇳 China

打ち上げ Sep 23, 2013 から Taiyuan Satellite Launch Center

Loading…

次のパス (今後24時間)

TLE

最新Source: Space-Track

元期: Sep 14, 2026, 05:29 UTC

1 43410U 13052E   26257.22861138  .00000349  00000-0  31852-3 0  9994
2 43410  98.8319  34.6383 0242823 167.4805 193.2528 13.76540754642780

AllMySatでCZ-4C DEBをリアルタイム追跡

Download on the App Store